Date,TemperatureHighF,TemperatureAvgF,TemperatureLowF,DewpointHighF,DewpointAvgF,DewpointLowF,HumidityHigh,HumidityAvg,HumidityLow,PressureMaxIn,PressureMinIn,WindSpeedMaxMPH,WindSpeedAvgMPH,GustSpeedMaxMPH,PrecipitationSumIn
2013-1-1,22,19,2,20,17,1,96,92,89,30.73,30.57,4,1,8,0.00
2013-1-2,25,20,7,20,17,5,97,90,79,30.69,30.56,6,1,8,0.00
2013-1-3,24,15,0,19,13,-3,97,90,81,30.56,30.44,9,2,10,0.00
2013-1-4,28,24,16,26,21,14,95,89,82,30.56,30.46,10,4,10,0.00
2013-1-5,32,26,22,26,23,19,96,87,75,30.47,30.28,9,2,10,0.00
2013-1-6,30,27,26,27,26,23,96,92,87,30.29,30.19,6,1,7,0.00
2013-1-7,34,30,26,32,28,23,97,92,85,30.19,30.01,8,2,11,0.00
2013-1-8,38,34,26,34,31,25,97,90,83,30.23,30.05,12,3,17,0.24
2013-1-9,41,36,29,36,33,29,97,89,80,30.06,29.73,12,4,19,0.41
2013-1-10,29,25,20,29,24,18,97,94,90,29.95,29.81,15,8,20,0.00
2013-1-11,19,16,6,18,15,4,96,94,90,30.38,29.95,11,4,14,0.00
2013-1-12,22,15,0,20,13,-3,96,93,87,30.46,30.37,2,0,3,0.00
2013-1-13,23,11,-12,21,9,-15,94,91,83,30.59,30.44,3,0,4,0.00
2013-1-14,20,16,8,19,15,6,95,94,92,30.63,30.51,6,2,8,0.00
2013-1-15,27,22,20,25,21,18,97,94,90,30.73,30.62,7,3,8,0.00
2013-1-16,28,23,19,27,22,17,96,94,88,30.72,30.66,8,3,10,0.01
2013-1-17,30,24,19,24,20,17,94,87,78,30.68,30.50,10,4,13,0.00
2013-1-18,32,26,22,25,21,19,89,83,73,30.50,30.38,10,4,12,0.00
2013-1-19,33,25,14,24,20,12,96,84,69,30.56,30.46,10,3,11,0.01
2013-1-20,34,25,19,27,21,17,93,85,70,30.62,30.49,9,4,12,0.00
2013-1-21,33,22,7,25,18,4,97,86,67,30.49,30.37,8,2,10,0.00
2013-1-22,33,23,17,25,20,15,95,88,72,30.42,30.26,7,3,10,0.01
2013-1-23,37,31,24,32,26,21,92,82,62,30.26,30.05,11,4,18,0.08
2013-1-24,38,33,26,33,30,24,97,89,77,30.30,30.13,7,3,13,0.00
2013-1-25,38,35,33,36,34,32,98,96,90,30.24,29.99,7,2,10,0.37
2013-1-26,35,32,29,35,32,28,99,97,93,30.02,29.93,10,1,12,0.13
2013-1-27,34,29,21,31,28,20,99,95,85,30.07,30.01,4,1,6,0.03
2013-1-28,31,27,21,28,26,21,98,96,90,30.03,29.93,16,3,19,0.00
2013-1-29,32,30,29,30,29,28,98,96,89,30.28,29.94,14,5,19,0.00
2013-1-30,40,35,29,36,33,29,99,93,83,30.32,30.22,9,2,14,0.70
2013-1-31,39,34,32,36,33,31,98,96,91,30.35,30.27,3,0,4,0.06